| time (UTC) | temp F | wind direction | speed MPH | gust MPH | rain 1hr in | rain 24hr in | rain mn in | humidity % | barometer mb |
| 20260504081509 | 55 | 0.0 | 0.0 | 0.00 | 0.00 | 0.00 | 81 | 1021.6 | |
| 20260504050015 | 56 | 0.0 | 0.0 | 0.00 | 0.00 | 0.00 | 77 | 1021.4 | |
| 20260504044505 | 56 | 0.0 | 0.0 | 0.00 | 0.00 | 0.00 | 76 | 1021.1 | |
| 20260504043101 | 56 | 0.0 | 0.0 | 0.00 | 0.00 | 0.00 | 75 | 1020.8 | |
| 20260504041557 | 56 | 0.0 | 0.0 | 0.00 | 0.00 | 0.00 | 76 | 1020.7 | |
| 20260504040051 | 56 | 0.0 | 0.0 | 0.00 | 0.00 | 0.00 | 75 | 1020.6 | |
| 20260504034549 | 56 | 0.0 | 0.0 | 0.00 | 0.00 | 0.00 | 75 | 1020.6 | |
| 20260504033043 | 56 | 0.0 | 0.0 | 0.00 | 0.00 | 0.00 | 75 | 1020.8 | |
| 20260504031538 | 56 | 0.0 | 0.0 | 0.00 | 0.00 | 0.00 | 74 | 1020.6 | |
| 20260504030034 | 57 | 0.0 | 0.0 | 0.00 | 0.00 | 0.00 | 73 | 1020.3 | |
| 20260504024533 | 57 | 0.0 | 0.0 | 0.00 | 0.00 | 0.00 | 73 | 1020.3 | |
| 20260504023026 | 57 | 0.0 | 0.0 | 0.00 | 0.00 | 0.00 | 72 | 1020.2 | |
| 20260504021522 | 57 | 0.0 | 0.0 | 0.00 | 0.00 | 0.00 | 72 | 1020.4 | |
| 20260504020016 | 58 | 0.0 | 0.0 | 0.00 | 0.00 | 0.00 | 71 | 1020.1 | |
| 20260504014518 | 59 | 0.0 | 0.0 | 0.00 | 0.00 | 0.00 | 69 | 1020.0 | |
| 20260504013027 | 60 | 0.0 | 0.0 | 0.00 | 0.00 | 0.00 | 67 | 1019.9 | |
| 20260504011503 | 61 | 0.0 | 0.0 | 0.00 | 0.00 | 0.00 | 65 | 1019.4 | |
| 20260504010059 | 62 | 0.0 | 0.0 | 0.00 | 0.00 | 0.00 | 62 | 1019.3 | |
| 20260504004628 | 62 | 0.0 | 0.0 | 0.00 | 0.00 | 0.00 | 63 | 1018.9 | |
| 20260504003058 | 63 | 0.0 | 0.0 | 0.00 | 0.00 | 0.00 | 62 | 1018.9 | |
| 20260504001616 | 63 | 0.0 | 0.0 | 0.00 | 0.00 | 0.00 | 63 | 1018.5 | |
| 20260504000045 | 64 | 0.0 | 0.0 | 0.00 | 0.00 | 0.00 | 63 | 1018.4 | |
| 20260503234537 | 64 | 0.0 | 0.0 | 0.00 | 0.00 | 0.00 | 63 | 1018.4 | |
| 20260503233038 | 64 | 0.0 | 0.0 | 0.00 | 0.00 | 0.00 | 63 | 1018.6 | |
| 20260503231529 | 63 | 0.0 | 0.0 | 0.00 | 0.00 | 0.00 | 64 | 1018.8 | |
| 20260503230024 | 63 | 0.0 | 0.0 | 0.00 | 0.00 | 0.00 | 64 | 1018.9 | |
| 20260503224520 | 63 | 0.0 | 0.0 | 0.00 | 0.00 | 0.00 | 65 | 1019.0 | |
| 20260503223016 | 62 | 0.0 | 0.0 | 0.00 | 0.00 | 0.00 | 68 | 1018.9 | |
| 20260503221513 | 62 | 0.0 | 0.0 | 0.00 | 0.00 | 0.00 | 68 | 1018.9 | |
| 20260503220007 | 63 | 0.0 | 0.0 | 0.00 | 0.00 | 0.00 | 67 | 1019.2 | |
| 20260503214502 | 63 | 0.0 | 0.0 | 0.00 | 0.00 | 0.00 | 68 | 1019.1 | |
| 20260503213058 | 62 | 0.0 | 0.0 | 0.00 | 0.00 | 0.00 | 70 | 1019.2 | |
| 20260503211554 | 61 | 0.0 | 0.0 | 0.00 | 0.00 | 0.00 | 71 | 1019.3 | |
| 20260503210051 | 61 | 0.0 | 0.0 | 0.00 | 0.00 | 0.00 | 71 | 1019.3 | |
| 20260503204545 | 62 | 0.0 | 0.0 | 0.00 | 0.00 | 0.00 | 71 | 1019.2 | |
| 20260503203059 | 62 | 0.0 | 0.0 | 0.00 | 0.00 | 0.00 | 71 | 1019.2 | |
| 20260503201536 | 62 | 0.0 | 0.0 | 0.00 | 0.00 | 0.00 | 72 | 1019.5 | |
| 20260503200032 | 63 | 0.0 | 0.0 | 0.00 | 0.00 | 0.00 | 68 | 1019.4 | |
| 20260503194538 | 64 | 0.0 | 0.0 | 0.00 | 0.00 | 0.00 | 68 | 1019.5 | |
| 20260503193024 | 64 | 0.0 | 0.0 | 0.00 | 0.00 | 0.00 | 69 | 1019.5 | |
| 20260503191519 | 63 | 0.0 | 0.0 | 0.00 | 0.00 | 0.00 | 71 | 1019.5 | |
| 20260503190016 | 63 | 0.0 | 0.0 | 0.00 | 0.00 | 0.00 | 73 | 1019.6 | |
| 20260503184517 | 62 | 0.0 | 0.0 | 0.00 | 0.00 | 0.00 | 77 | 1019.6 | |
| 20260503183006 | 60 | 0.0 | 0.0 | 0.00 | 0.00 | 0.00 | 82 | 1019.6 | |
| 20260503181502 | 60 | 0.0 | 0.0 | 0.00 | 0.00 | 0.00 | 82 | 1019.7 | |
| 20260503180057 | 60 | 0.0 | 0.0 | 0.00 | 0.00 | 0.00 | 84 | 1019.7 | |
| 20260503174552 | 59 | 0.0 | 0.0 | 0.00 | 0.00 | 0.00 | 86 | 1019.9 | |
| 20260503173049 | 58 | 0.0 | 0.0 | 0.00 | 0.00 | 0.00 | 85 | 1019.9 | |
| 20260503171544 | 57 | 0.0 | 0.0 | 0.00 | 0.00 | 0.00 | 88 | 1019.9 |